Regional Weather Roundup
Issued by NWS

Home | Current Version | Previous Version | Graphics & Text | Print | Product List | Glossary On
Versions: 1 2 3 4 5 6 7 8 9 10 11 12 13 14 15 16 17 18 19 20 21 22 23 24 25 26 27 28 29 30 31 32 33 34 35 36 37 38 39 40 41 42 43 44 45 46 47 48 49 50
000
ASUS43 KOAX 081510
RWRNE

WEATHER ROUNDUP FOR NEBRASKA
NATIONAL WEATHER SERVICE OMAHA NE
900 AM CST MON FEB 08 2016

NOTES: SATELLITE DATA IS BEING USED TO AUGMENT CLOUD COVER ABOVE
       12000 FEET.
       "FAIR" INDICATES FEW OR NO CLOUDS BELOW 12,000 FEET WITH NO
       SIGNIFICANT WEATHER AND/OR OBSTRUCTIONS TO VISIBILITY.

  * THESE STATIONS DO NOT REPORT WEATHER SUCH AS RAIN...SNOW OR FOG.

NEZ001>004-019>022-054>056-081600-
NEBRASKA PANHANDLE

CITY           SKY/WX    TMP DP  RH WIND       PRES   REMARKS
SCOTTSBLUFF    CLOUDY    27  14  58 NW15      30.38R WCI  15
ALLIANCE       CLOUDY    25  10  53 W16       30.33R WCI  12
CHADRON        CLOUDY    29  13  51 NW17G25   30.38R WCI  17
KIMBALL        CLOUDY    26  15  65 NW9G17    30.36R WCI  16
SIDNEY         CLOUDY    23  12  62 NW15      30.34R WCI  10
$$

NEZ057>060-069>072-079>082-081600-
SOUTHWEST NEBRASKA

CITY           SKY/WX    TMP DP  RH WIND       PRES   REMARKS
NORTH PLATTE   SUNNY     26  12  55 NW20G28   30.30R WCI  12
IMPERIAL       CLOUDY    26   9  48 NW21      30.33R WCI  12
LEXINGTON      SUNNY     28  15  60 NW24G33   30.26R WCI  13
MCCOOK         SUNNY     26  13  57 NW23      30.32R WCI  11
OGALLALA       SUNNY     28  11  49 NW23G30   30.32R WCI  13
$$

NEZ005>010-023>029-035>040-094-081600-
NORTH CENTRAL NEBRASKA

CITY           SKY/WX    TMP DP  RH WIND       PRES   REMARKS
AINSWORTH      SUNNY     27  16  62 NW25G33   30.25R WCI  12
BROKEN BOW     SUNNY     27  15  61 NW28G36   30.22R WCI  11
O`NEILL        SUNNY     26  18  69 NW25G36   30.19R WCI  11
ORD            SUNNY     27  16  63 NW29G37   30.19R WCI  11
THEDFORD       SUNNY     28  17  65 NW24      30.28R WCI  13
$$

NEZ041-046>049-061>064-073>077-083>087-081600-
SOUTH CENTRAL NEBRASKA

CITY           SKY/WX    TMP DP  RH WIND       PRES   REMARKS
GRAND ISLAND   SUNNY     27  15  61 NW29G38   30.19R WCI  11
AURORA         PTSUNNY   27  17  67 NW31G38   30.18R WCI  10
HASTINGS       SUNNY     27  16  63 NW25G36   30.19R WCI  12
HEBRON         MOSUNNY   29  19  65 N23G31    30.18R WCI  16
HOLDREGE       SUNNY     28  16  61 NW18G29   30.23R WCI  15
YORK           CLOUDY    28  19  69 NW29G36   30.15R WCI  13
$$

NEZ011>018-030>034-042>045-081600-
NORTHEAST NEBRASKA

CITY           SKY/WX    TMP DP  RH WIND       PRES   REMARKS
NORFOLK        CLOUDY    27  17  66 NW25G43   30.10R WCI  12
ALBION         CLOUDY    27  17  65 NW31G40   30.13S WCI  10
BLAIR          CLOUDY    27  20  76 NW30G44   30.04R WCI  10
COLUMBUS *     CLOUDY    27  10  50 NW39G48   30.12S WCI   8
FREMONT        CLOUDY    28  18  67 NW30G38   30.10R WCI  11
TEKAMAH        MIX PCPN  28  17  63 N37G53    30.07R WCI  11
WAYNE          FLURRIES  26  19  74 N23G30    30.10R WCI  11
$$

NEZ050>053-065>068-078-088>093-081600-
SOUTHEAST NEBRASKA

CITY           SKY/WX    TMP DP  RH WIND       PRES   REMARKS
LINCOLN        CLOUDY    29  17  61 N29G45    30.12R WCI  14
OMAHA EPPLEY   PTSUNNY   27  17  66 NW30G44   30.04R WCI  11
BEATRICE       CLOUDY    30  19  65 N30G39    30.13R WCI  14
FALLS CITY     CLOUDY    30  19  63 NW23G35   30.06R WCI  17
NEBRASKA CITY  CLOUDY    29  20  69 N23G39    30.06R WCI  15
PLATTSMOUTH    CLOUDY    28  19  70 NW37G44   30.03S WCI  10
$$

NEZ044-045-051>053-067-081600-
OMAHA AREA

CITY           SKY/WX    TMP DP  RH WIND       PRES   REMARKS
OMAHA EPPLEY   PTSUNNY   27  17  66 NW30G44   30.04R WCI  11
BLAIR          CLOUDY    27  20  76 NW30G44   30.04R WCI  10
FREMONT        CLOUDY    28  18  67 NW30G38   30.10R WCI  11
MILLARD        CLOUDY    29  20  67 NW16G30   30.07R WCI  17
OFFUTT AFB     FLURRIES  28  18  64 NW23G31   30.06R WCI  14
PLATTSMOUTH    CLOUDY    28  19  70 NW37G44   30.03S WCI  10
WAHOO          CLOUDY    29  18  62 NW30G39   30.09R WCI  13
$$



USA.gov is the U.S. government's official web portal to all federal, state and local government web resources and services.